Time,TemperatureF,DewpointF,PressureIn,WindDirection,WindDirectionDegrees,WindSpeedMPH,WindSpeedGustMPH,Humidity,HourlyPrecipIn,Conditions,Clouds,dailyrainin,SoftwareType,DateUTC
2013-06-13 00:05:00,65.5,65.2,27.95,North,356,0.0,0.0,99,0.00,00:00,,0.00,WeatherDisplay:WD co,2013-06-12 21:05:00,
2013-06-13 00:10:00,66.0,65.7,27.95,NE,49,0.0,0.0,99,0.00,00:10,,0.00,WeatherDisplay:WD co,2013-06-12 21:10:00,
2013-06-13 00:15:00,66.0,65.7,27.95,NE,47,0.0,0.0,99,0.00,00:15,,0.00,WeatherDisplay:WD co,2013-06-12 21:15:00,
2013-06-13 00:20:00,66.2,65.9,27.96,NNE,30,0.0,0.0,99,0.00,00:20,,0.00,WeatherDisplay:WD co,2013-06-12 21:20:00,
2013-06-13 00:35:00,66.7,66.5,27.95,NE,46,0.0,0.0,99,0.00,00:35,,0.00,WeatherDisplay:WD co,2013-06-12 21:35:00,
2013-06-13 00:40:00,66.7,66.5,27.95,NE,46,0.0,0.0,99,0.00,00:35,,0.00,WeatherDisplay:WD co,2013-06-12 21:40:00,
2013-06-13 00:45:00,67.3,67.0,27.95,NE,38,0.0,0.0,99,0.01,00:45,,0.01,WeatherDisplay:WD co,2013-06-12 21:45:00,
2013-06-13 00:50:00,67.3,67.0,27.95,NE,40,0.0,4.0,99,0.01,00:50,,0.01,WeatherDisplay:WD co,2013-06-12 21:50:00,
2013-06-13 00:55:00,67.3,67.0,27.95,NE,50,0.0,0.0,99,0.00,00:55,,0.01,WeatherDisplay:WD co,2013-06-12 21:55:00,
2013-06-13 01:00:00,67.1,66.8,27.95,ENE,61,0.0,0.0,99,0.00,RA,,0.01,WeatherDisplay:WD co,2013-06-12 22:00:00,
2013-06-13 01:10:00,66.9,66.6,27.95,ENE,75,0.0,0.0,99,0.00,RA,,0.01,WeatherDisplay:WD co,2013-06-12 22:10:00,
2013-06-13 01:15:00,66.9,66.6,27.95,ENE,75,0.0,0.0,99,0.00,RA,,0.01,WeatherDisplay:WD co,2013-06-12 22:15:00,
2013-06-13 01:25:00,66.9,66.6,27.96,East,86,0.0,0.0,99,0.00,RA,,0.01,WeatherDisplay:WD co,2013-06-12 22:25:00,
2013-06-13 01:30:00,66.9,66.6,27.96,East,86,0.0,0.0,99,0.00,RA,,0.01,WeatherDisplay:WD co,2013-06-12 22:30:00,
2013-06-13 01:35:00,66.9,66.6,27.95,NNE,16,0.0,0.0,99,0.00,RA,,0.01,WeatherDisplay:WD co,2013-06-12 22:35:00,
2013-06-13 01:40:00,66.9,66.6,27.95,NNE,26,0.0,0.0,99,0.00,RA,,0.01,WeatherDisplay:WD co,2013-06-12 22:40:00,
2013-06-13 01:45:00,66.9,66.6,27.95,West,259,0.0,0.0,99,0.00,RA,,0.01,WeatherDisplay:WD co,2013-06-12 22:45:00,
2013-06-13 01:50:00,66.9,66.6,27.95,West,259,0.0,0.0,99,0.00,RA,,0.01,WeatherDisplay:WD co,2013-06-12 22:50:00,
2013-06-13 02:10:00,66.6,66.3,27.94,WSW,251,0.0,0.0,99,0.00,RA,,0.01,WeatherDisplay:WD co,2013-06-12 23:10:00,
2013-06-13 02:15:00,66.4,66.1,27.94,SW,216,0.0,0.0,99,0.00,RA,,0.01,WeatherDisplay:WD co,2013-06-12 23:15:00,
2013-06-13 02:20:00,66.4,66.1,27.94,WSW,251,0.0,0.0,99,0.00,RA,,0.01,WeatherDisplay:WD co,2013-06-12 23:20:00,
2013-06-13 02:25:00,66.4,66.1,27.94,North,0,0.0,0.0,99,0.00,RA,,0.01,WeatherDisplay:WD co,2013-06-12 23:25:00,
2013-06-13 02:30:00,66.6,66.3,27.94,WNW,302,0.0,0.0,99,0.00,RA,,0.01,WeatherDisplay:WD co,2013-06-12 23:30:00,
2013-06-13 02:35:00,66.6,66.3,27.94,WNW,302,0.0,0.0,99,0.00,RA,,0.01,WeatherDisplay:WD co,2013-06-12 23:35:00,
2013-06-13 02:40:00,66.6,66.3,27.94,NW,325,0.0,0.0,99,0.00,RA,,0.01,WeatherDisplay:WD co,2013-06-12 23:40:00,
2013-06-13 02:45:00,66.6,66.3,27.94,WNW,302,0.0,0.0,99,0.00,RA,,0.01,WeatherDisplay:WD co,2013-06-12 23:45:00,
2013-06-13 02:50:00,66.7,66.5,27.94,North,10,0.0,0.0,99,0.00,RA,,0.01,WeatherDisplay:WD co,2013-06-12 23:50:00,
2013-06-13 02:55:00,66.7,66.5,27.94,East,97,0.0,0.0,99,0.00,RA,,0.01,WeatherDisplay:WD co,2013-06-12 23:55:00,
2013-06-13 03:00:00,66.7,66.5,27.94,East,97,0.0,0.0,99,0.00,RA,,0.01,WeatherDisplay:WD co,2013-06-13 00:00:00,
2013-06-13 03:05:00,66.6,66.3,27.94,NNW,342,0.0,0.0,99,0.00,03:05,,0.01,WeatherDisplay:WD co,2013-06-13 00:05:00,
2013-06-13 03:10:00,66.7,66.5,27.94,NE,38,1.0,4.0,99,0.00,03:10,,0.01,WeatherDisplay:WD co,2013-06-13 00:10:00,
2013-06-13 03:15:00,67.1,66.5,27.94,NE,47,0.0,4.0,98,0.00,03:15,,0.01,WeatherDisplay:WD co,2013-06-13 00:15:00,
2013-06-13 03:20:00,67.5,66.6,27.94,ENE,65,0.0,1.0,97,0.00,03:20,,0.01,WeatherDisplay:WD co,2013-06-13 00:20:00,
2013-06-13 03:25:00,67.6,66.5,27.94,ENE,62,0.0,4.0,96,0.00,03:25,,0.01,WeatherDisplay:WD co,2013-06-13 00:25:00,
2013-06-13 03:30:00,67.6,66.5,27.94,NE,42,0.0,0.0,96,0.00,03:30,,0.01,WeatherDisplay:WD co,2013-06-13 00:30:00,
2013-06-13 03:35:00,67.6,66.2,27.93,NE,51,0.0,0.0,95,0.00,03:35,,0.01,WeatherDisplay:WD co,2013-06-13 00:35:00,
2013-06-13 03:40:00,67.6,65.9,27.94,NNE,18,0.0,5.0,94,0.00,03:40,,0.01,WeatherDisplay:WD co,2013-06-13 00:40:00,
2013-06-13 03:45:00,67.6,65.9,27.94,NNE,17,0.0,0.0,94,0.00,03:45,,0.01,WeatherDisplay:WD co,2013-06-13 00:45:00,
2013-06-13 03:50:00,67.8,65.7,27.94,NNE,25,0.0,4.0,93,0.00,03:50,,0.01,WeatherDisplay:WD co,2013-06-13 00:50:00,
2013-06-13 03:55:00,67.8,65.7,27.94,NE,37,0.0,6.0,93,0.00,03:55,,0.01,WeatherDisplay:WD co,2013-06-13 00:55:00,
2013-06-13 04:00:00,68.0,65.9,27.94,NE,41,0.0,4.0,93,0.00,04:00,,0.01,WeatherDisplay:WD co,2013-06-13 01:00:00,
2013-06-13 04:05:00,68.0,65.9,27.93,NE,40,2.0,4.0,93,0.00,04:05,,0.01,WeatherDisplay:WD co,2013-06-13 01:05:00,
2013-06-13 04:10:00,68.0,65.9,27.94,NNE,19,1.0,5.0,93,0.00,04:10,,0.01,WeatherDisplay:WD co,2013-06-13 01:10:00,
2013-06-13 04:15:00,68.0,65.6,27.94,NNE,29,0.0,4.0,92,0.00,04:15,,0.01,WeatherDisplay:WD co,2013-06-13 01:15:00,
2013-06-13 04:20:00,68.0,65.6,27.94,NE,42,0.0,4.0,92,0.00,04:20,,0.01,WeatherDisplay:WD co,2013-06-13 01:20:00,
2013-06-13 04:25:00,68.0,65.3,27.94,ENE,67,1.0,4.0,91,0.00,04:25,,0.01,WeatherDisplay:WD co,2013-06-13 01:25:00,
2013-06-13 04:35:00,68.2,65.5,27.94,ENE,67,1.0,5.0,91,0.00,04:30,,0.01,WeatherDisplay:WD co,2013-06-13 01:35:00,
2013-06-13 04:40:00,68.2,65.1,27.94,NE,49,0.0,3.0,90,0.00,04:40,,0.01,WeatherDisplay:WD co,2013-06-13 01:40:00,
2013-06-13 04:45:00,68.0,65.0,27.94,ENE,62,0.0,3.0,90,0.00,04:45,,0.01,WeatherDisplay:WD co,2013-06-13 01:45:00,
2013-06-13 04:50:00,68.0,65.3,27.95,NNE,23,0.0,0.0,91,0.00,04:50,,0.01,WeatherDisplay:WD co,2013-06-13 01:50:00,
2013-06-13 04:55:00,68.0,65.3,27.95,NNE,23,0.0,2.0,91,0.00,04:55,,0.01,WeatherDisplay:WD co,2013-06-13 01:55:00,
2013-06-13 05:00:00,67.8,65.1,27.94,NNE,31,0.0,2.0,91,0.00,05:00,,0.01,WeatherDisplay:WD co,2013-06-13 02:00:00,
2013-06-13 05:05:00,67.8,65.1,27.94,NNE,31,0.0,2.0,91,0.00,05:00,,0.01,WeatherDisplay:WD co,2013-06-13 02:05:00,
2013-06-13 05:10:00,67.8,65.1,27.94,ENE,65,0.0,0.0,91,0.00,05:10,,0.01,WeatherDisplay:WD co,2013-06-13 02:10:00,
2013-06-13 05:15:00,67.6,64.9,27.95,NE,56,0.0,0.0,91,0.00,05:15,,0.01,WeatherDisplay:WD co,2013-06-13 02:15:00,
2013-06-13 05:20:00,67.6,64.9,27.95,NE,45,0.0,4.0,91,0.00,05:20,,0.01,WeatherDisplay:WD co,2013-06-13 02:20:00,
2013-06-13 05:25:00,67.6,64.9,27.95,NNE,18,0.0,2.0,91,0.00,05:25,,0.01,WeatherDisplay:WD co,2013-06-13 02:25:00,
2013-06-13 05:35:00,67.5,64.7,27.94,North,357,0.0,0.0,91,0.00,05:30,,0.01,WeatherDisplay:WD co,2013-06-13 02:35:00,
2013-06-13 05:40:00,67.3,64.6,27.95,SW,236,0.0,2.0,91,0.00,05:40,,0.01,WeatherDisplay:WD co,2013-06-13 02:40:00,
2013-06-13 05:50:00,67.5,64.7,27.95,SE,141,0.0,1.0,91,0.00,05:50,,0.01,WeatherDisplay:WD co,2013-06-13 02:50:00,
2013-06-13 05:55:00,67.8,65.1,27.95,SE,141,1.0,4.0,91,0.00,05:55,,0.01,WeatherDisplay:WD co,2013-06-13 02:55:00,
2013-06-13 06:05:00,68.0,65.3,27.95,SE,126,0.0,0.0,91,0.00,06:05,,0.01,WeatherDisplay:WD co,2013-06-13 03:05:00,
2013-06-13 06:10:00,68.0,65.3,27.95,NNE,23,0.0,2.0,91,0.00,06:10,,0.01,WeatherDisplay:WD co,2013-06-13 03:10:00,
2013-06-13 06:15:00,68.0,65.3,27.95,NNE,23,0.0,2.0,91,0.00,06:10,,0.01,WeatherDisplay:WD co,2013-06-13 03:15:00,
2013-06-13 06:25:00,68.2,65.5,27.95,NNW,342,0.0,2.0,91,0.00,06:25,,0.01,WeatherDisplay:WD co,2013-06-13 03:25:00,
2013-06-13 06:30:00,68.2,65.5,27.96,ESE,118,0.0,4.0,91,0.00,06:30,,0.01,WeatherDisplay:WD co,2013-06-13 03:30:00,
2013-06-13 06:35:00,68.4,65.3,27.96,South,177,1.0,4.0,90,0.00,06:35,,0.01,WeatherDisplay:WD co,2013-06-13 03:35:00,
2013-06-13 06:40:00,68.5,65.2,27.96,NNE,26,0.0,4.0,89,0.00,06:40,,0.01,WeatherDisplay:WD co,2013-06-13 03:40:00,
2013-06-13 06:45:00,68.7,65.3,27.96,NNE,24,1.0,4.0,89,0.00,06:45,,0.01,WeatherDisplay:WD co,2013-06-13 03:45:00,
2013-06-13 06:50:00,68.7,65.0,27.96,NNW,330,0.0,7.0,88,0.00,06:50,,0.01,WeatherDisplay:WD co,2013-06-13 03:50:00,
2013-06-13 06:55:00,68.9,65.2,27.96,North,10,1.0,4.0,88,0.00,06:55,,0.01,WeatherDisplay:WD co,2013-06-13 03:55:00,
2013-06-13 07:05:00,69.1,65.4,27.96,East,83,0.0,2.0,88,0.00,07:05,,0.01,WeatherDisplay:WD co,2013-06-13 04:05:00,
2013-06-13 07:10:00,69.3,65.6,27.95,NNE,32,0.0,0.0,88,0.00,07:10,,0.01,WeatherDisplay:WD co,2013-06-13 04:10:00,
2013-06-13 07:15:00,69.4,65.4,27.95,NNW,343,0.0,0.0,87,0.00,07:15,,0.01,WeatherDisplay:WD co,2013-06-13 04:15:00,
2013-06-13 07:20:00,69.6,65.6,27.96,NNE,12,0.0,3.0,87,0.00,07:20,,0.01,WeatherDisplay:WD co,2013-06-13 04:20:00,
2013-06-13 07:25:00,69.8,65.8,27.96,North,2,1.0,4.0,87,0.00,07:25,,0.01,WeatherDisplay:WD co,2013-06-13 04:25:00,
2013-06-13 07:40:00,70.3,65.6,27.95,WNW,302,2.0,4.0,85,0.00,07:40,,0.01,WeatherDisplay:WD co,2013-06-13 04:40:00,
2013-06-13 07:45:00,70.2,65.4,27.96,NNE,14,1.0,5.0,85,0.00,07:45,,0.01,WeatherDisplay:WD co,2013-06-13 04:45:00,
2013-06-13 07:50:00,70.2,65.4,27.96,NNE,12,1.0,4.0,85,0.00,07:50,,0.01,WeatherDisplay:WD co,2013-06-13 04:50:00,
2013-06-13 07:55:00,70.0,65.6,27.95,South,191,0.0,5.0,86,0.00,07:55,,0.01,WeatherDisplay:WD co,2013-06-13 04:55:00,
2013-06-13 08:00:00,70.0,65.6,27.95,SE,143,0.0,4.0,86,0.00,08:00,,0.01,WeatherDisplay:WD co,2013-06-13 05:00:00,
2013-06-13 08:10:00,69.6,65.6,27.96,East,96,1.0,5.0,87,0.00,08:10,,0.01,WeatherDisplay:WD co,2013-06-13 05:10:00,
2013-06-13 08:15:00,69.4,65.7,27.96,ENE,72,0.0,4.0,88,0.00,08:15,,0.01,WeatherDisplay:WD co,2013-06-13 05:15:00,
2013-06-13 08:20:00,69.4,65.7,27.96,NNE,32,0.0,4.0,88,0.00,08:20,,0.01,WeatherDisplay:WD co,2013-06-13 05:20:00,
2013-06-13 08:25:00,69.4,65.7,27.96,NE,40,3.0,8.0,88,0.00,08:25,,0.01,WeatherDisplay:WD co,2013-06-13 05:25:00,
2013-06-13 08:35:00,69.4,65.7,27.97,ENE,62,3.0,8.0,88,0.00,08:35,,0.01,WeatherDisplay:WD co,2013-06-13 05:35:00,
2013-06-13 08:40:00,69.6,65.9,27.97,ENE,67,0.0,2.0,88,0.00,08:40,,0.01,WeatherDisplay:WD co,2013-06-13 05:40:00,
2013-06-13 08:45:00,70.0,65.9,27.96,NE,41,1.0,4.0,87,0.00,08:45,,0.01,WeatherDisplay:WD co,2013-06-13 05:45:00,
2013-06-13 08:50:00,70.5,66.5,27.97,NE,45,1.0,4.0,87,0.00,08:50,,0.01,WeatherDisplay:WD co,2013-06-13 05:50:00,
2013-06-13 08:55:00,71.1,66.3,27.97,NNE,16,1.0,6.0,85,0.00,08:55,,0.01,WeatherDisplay:WD co,2013-06-13 05:55:00,
2013-06-13 09:00:00,72.0,66.5,27.97,NNE,23,1.0,6.0,83,0.00,09:00,,0.01,WeatherDisplay:WD co,2013-06-13 06:00:00,
2013-06-13 09:05:00,72.3,66.9,27.97,NNE,19,0.0,4.0,83,0.00,09:05,,0.01,WeatherDisplay:WD co,2013-06-13 06:05:00,
2013-06-13 09:10:00,72.9,66.7,27.97,ENE,58,2.0,6.0,81,0.00,09:10,,0.01,WeatherDisplay:WD co,2013-06-13 06:10:00,
2013-06-13 09:15:00,72.9,66.7,27.97,ENE,58,2.0,6.0,81,0.00,09:10,,0.01,WeatherDisplay:WD co,2013-06-13 06:15:00,
2013-06-13 09:20:00,72.3,66.2,27.97,East,80,1.0,7.0,81,0.00,09:20,,0.01,WeatherDisplay:WD co,2013-06-13 06:20:00,
2013-06-13 09:25:00,72.0,65.5,27.97,East,87,2.0,7.0,80,0.00,09:25,,0.01,WeatherDisplay:WD co,2013-06-13 06:25:00,
2013-06-13 09:30:00,71.8,64.9,27.97,ENE,61,3.0,8.0,79,0.00,09:30,,0.01,WeatherDisplay:WD co,2013-06-13 06:30:00,
2013-06-13 09:35:00,72.0,65.1,27.97,NE,48,2.0,5.0,79,0.00,09:35,,0.01,WeatherDisplay:WD co,2013-06-13 06:35:00,
2013-06-13 09:40:00,72.3,65.1,27.98,ENE,58,2.0,5.0,78,0.00,09:40,,0.01,WeatherDisplay:WD co,2013-06-13 06:40:00,
2013-06-13 09:45:00,72.3,65.1,27.98,ENE,58,2.0,5.0,78,0.00,09:40,,0.01,WeatherDisplay:WD co,2013-06-13 06:45:00,
2013-06-13 09:50:00,72.9,65.6,27.98,NNE,27,0.0,4.0,78,0.00,09:50,,0.01,WeatherDisplay:WD co,2013-06-13 06:50:00,
2013-06-13 09:55:00,73.0,65.8,27.98,NW,322,1.0,6.0,78,0.00,09:55,,0.01,WeatherDisplay:WD co,2013-06-13 06:55:00,
2013-06-13 10:00:00,73.4,66.1,27.99,NNW,347,1.0,6.0,78,0.00,10:00,,0.01,WeatherDisplay:WD co,2013-06-13 07:00:00,
2013-06-13 10:05:00,73.8,66.1,27.99,North,350,1.0,5.0,77,0.00,10:05,,0.01,WeatherDisplay:WD co,2013-06-13 07:05:00,
2013-06-13 10:15:00,75.0,66.9,27.99,ESE,108,3.0,8.0,76,0.00,10:15,,0.01,WeatherDisplay:WD co,2013-06-13 07:15:00,
2013-06-13 10:20:00,75.0,67.3,27.99,NE,44,0.0,8.0,77,0.00,10:20,,0.01,WeatherDisplay:WD co,2013-06-13 07:20:00,
2013-06-13 10:25:00,75.0,66.9,27.99,NE,38,0.0,5.0,76,0.00,10:25,,0.01,WeatherDisplay:WD co,2013-06-13 07:25:00,
2013-06-13 10:30:00,75.4,66.9,27.99,East,96,3.0,8.0,75,0.00,10:30,,0.01,WeatherDisplay:WD co,2013-06-13 07:30:00,
2013-06-13 10:35:00,75.2,66.7,27.99,ENE,70,1.0,6.0,75,0.00,10:35,,0.01,WeatherDisplay:WD co,2013-06-13 07:35:00,
2013-06-13 10:40:00,75.7,67.2,27.99,NE,50,1.0,8.0,75,0.00,10:40,,0.01,WeatherDisplay:WD co,2013-06-13 07:40:00,
2013-06-13 10:50:00,76.8,67.5,27.99,NE,41,2.0,8.0,73,0.00,10:50,,0.01,WeatherDisplay:WD co,2013-06-13 07:50:00,
2013-06-13 10:55:00,76.8,67.5,27.99,ENE,70,0.0,6.0,73,0.00,10:55,,0.01,WeatherDisplay:WD co,2013-06-13 07:55:00,
2013-06-13 11:00:00,77.2,67.9,27.99,NE,56,0.0,4.0,73,0.00,11:00,,0.01,WeatherDisplay:WD co,2013-06-13 08:00:00,
2013-06-13 11:05:00,77.0,67.7,27.99,ESE,104,3.0,7.0,73,0.00,11:05,,0.01,WeatherDisplay:WD co,2013-06-13 08:05:00,
2013-06-13 11:10:00,77.4,68.0,27.99,ENE,73,1.0,5.0,73,0.00,11:10,,0.01,WeatherDisplay:WD co,2013-06-13 08:10:00,
2013-06-13 11:15:00,77.5,67.8,27.99,NE,49,3.0,7.0,72,0.00,11:15,,0.01,WeatherDisplay:WD co,2013-06-13 08:15:00,
2013-06-13 11:20:00,77.9,67.7,27.99,NE,52,3.0,7.0,71,0.00,11:20,,0.01,WeatherDisplay:WD co,2013-06-13 08:20:00,
2013-06-13 11:25:00,77.9,67.7,27.99,ENE,57,1.0,6.0,71,0.00,11:25,,0.01,WeatherDisplay:WD co,2013-06-13 08:25:00,
2013-06-13 11:35:00,79.5,68.5,27.98,NNE,28,1.0,5.0,69,0.00,11:35,,0.01,WeatherDisplay:WD co,2013-06-13 08:35:00,
2013-06-13 11:40:00,80.8,68.4,27.99,North,10,3.0,8.0,66,0.00,11:40,,0.01,WeatherDisplay:WD co,2013-06-13 08:40:00,
2013-06-13 11:50:00,79.5,68.0,27.99,ENE,63,3.0,6.0,68,0.00,11:50,,0.01,WeatherDisplay:WD co,2013-06-13 08:50:00,
2013-06-13 11:55:00,79.3,68.3,27.99,North,356,2.0,6.0,69,0.00,11:55,,0.01,WeatherDisplay:WD co,2013-06-13 08:55:00,
2013-06-13 12:00:00,78.6,67.6,27.99,SSW,208,3.0,8.0,69,0.00,12:00,,0.01,WeatherDisplay:WD co,2013-06-13 09:00:00,
2013-06-13 12:05:00,78.1,67.9,27.99,South,177,0.0,8.0,71,0.00,12:05,,0.01,WeatherDisplay:WD co,2013-06-13 09:05:00,
2013-06-13 12:10:00,78.1,67.9,28.00,NNE,17,6.0,11.0,71,0.00,12:10,,0.01,WeatherDisplay:WD co,2013-06-13 09:10:00,
2013-06-13 12:15:00,78.1,67.9,28.00,NNE,17,6.0,11.0,71,0.00,12:10,,0.01,WeatherDisplay:WD co,2013-06-13 09:15:00,
2013-06-13 12:20:00,75.9,67.8,27.99,ENE,59,3.0,11.0,76,0.00,12:20,,0.01,WeatherDisplay:WD co,2013-06-13 09:20:00,
2013-06-13 12:25:00,75.9,67.8,27.99,ENE,59,3.0,11.0,76,0.00,12:20,,0.01,WeatherDisplay:WD co,2013-06-13 09:25:00,
2013-06-13 12:30:00,75.7,68.4,27.99,ENE,57,0.0,7.0,78,0.00,12:30,,0.01,WeatherDisplay:WD co,2013-06-13 09:30:00,
2013-06-13 12:35:00,76.5,68.3,27.99,NE,37,0.0,5.0,76,0.00,12:35,,0.01,WeatherDisplay:WD co,2013-06-13 09:35:00,
2013-06-13 12:40:00,77.9,68.1,27.99,NE,39,3.0,7.0,72,0.00,12:40,,0.01,WeatherDisplay:WD co,2013-06-13 09:40:00,
2013-06-13 12:45:00,78.1,68.3,27.99,East,95,1.0,7.0,72,0.00,12:45,,0.01,WeatherDisplay:WD co,2013-06-13 09:45:00,
2013-06-13 12:55:00,81.7,68.8,27.98,WSW,242,1.0,5.0,65,0.00,12:55,,0.01,WeatherDisplay:WD co,2013-06-13 09:55:00,
2013-06-13 13:00:00,81.0,69.0,27.99,West,261,2.0,6.0,67,0.00,13:00,,0.01,WeatherDisplay:WD co,2013-06-13 10:00:00,
2013-06-13 13:05:00,80.6,68.6,27.99,ENE,74,1.0,8.0,67,0.00,13:05,,0.01,WeatherDisplay:WD co,2013-06-13 10:05:00,
2013-06-13 13:10:00,79.7,68.2,27.98,ENE,61,6.0,10.0,68,0.00,13:10,,0.01,WeatherDisplay:WD co,2013-06-13 10:10:00,
2013-06-13 13:15:00,78.8,67.3,27.99,NE,50,1.0,10.0,68,0.00,13:15,,0.01,WeatherDisplay:WD co,2013-06-13 10:15:00,
2013-06-13 13:20:00,78.1,67.5,27.99,ENE,60,1.0,8.0,70,0.00,13:20,,0.01,WeatherDisplay:WD co,2013-06-13 10:20:00,
2013-06-13 13:25:00,78.4,67.4,27.98,ESE,102,3.0,13.0,69,0.00,13:25,,0.01,WeatherDisplay:WD co,2013-06-13 10:25:00,
2013-06-13 13:30:00,78.4,67.4,27.98,ESE,102,3.0,13.0,69,0.00,13:25,,0.01,WeatherDisplay:WD co,2013-06-13 10:30:00,
2013-06-13 13:35:00,79.9,68.4,27.98,NE,53,1.0,10.0,68,0.00,13:30,,0.01,WeatherDisplay:WD co,2013-06-13 10:35:00,
2013-06-13 13:40:00,82.0,68.7,27.98,ENE,64,0.0,8.0,64,0.00,13:40,,0.01,WeatherDisplay:WD co,2013-06-13 10:40:00,
2013-06-13 13:45:00,81.0,68.1,27.98,ENE,75,6.0,12.0,65,0.00,13:45,,0.01,WeatherDisplay:WD co,2013-06-13 10:45:00,
2013-06-13 13:50:00,79.5,67.6,27.98,ENE,72,1.0,8.0,67,0.00,13:50,,0.01,WeatherDisplay:WD co,2013-06-13 10:50:00,
2013-06-13 14:00:00,79.3,67.9,27.98,East,90,1.0,7.0,68,0.00,13:55,,0.01,WeatherDisplay:WD co,2013-06-13 11:00:00,
2013-06-13 14:10:00,78.4,67.8,27.98,SE,138,1.0,7.0,70,0.00,14:10,,0.01,WeatherDisplay:WD co,2013-06-13 11:10:00,
2013-06-13 14:15:00,79.0,67.9,27.98,ESE,108,0.0,4.0,69,0.00,14:15,,0.01,WeatherDisplay:WD co,2013-06-13 11:15:00,
2013-06-13 14:25:00,80.8,68.8,27.98,NNE,26,1.0,6.0,67,0.00,14:25,,0.01,WeatherDisplay:WD co,2013-06-13 11:25:00,
2013-06-13 14:40:00,81.3,69.7,27.98,ENE,74,0.0,5.0,68,0.00,14:40,,0.01,WeatherDisplay:WD co,2013-06-13 11:40:00,
2013-06-13 14:45:00,84.0,70.5,27.98,NE,50,2.0,4.0,64,0.00,14:45,,0.01,WeatherDisplay:WD co,2013-06-13 11:45:00,
2013-06-13 14:55:00,83.8,69.4,27.98,NNW,328,3.0,10.0,62,0.00,14:55,,0.01,WeatherDisplay:WD co,2013-06-13 11:55:00,
2013-06-13 15:00:00,83.3,69.4,27.98,NW,319,1.0,10.0,63,0.00,15:00,,0.01,WeatherDisplay:WD co,2013-06-13 12:00:00,
2013-06-13 15:05:00,83.5,70.0,27.97,WSW,256,0.0,4.0,64,0.00,15:05,,0.01,WeatherDisplay:WD co,2013-06-13 12:05:00,
2013-06-13 15:10:00,83.3,69.4,27.97,SW,234,1.0,4.0,63,0.00,15:10,,0.01,WeatherDisplay:WD co,2013-06-13 12:10:00,
2013-06-13 15:15:00,83.3,69.4,27.97,SW,234,1.0,4.0,63,0.00,15:10,,0.01,WeatherDisplay:WD co,2013-06-13 12:15:00,
2013-06-13 15:20:00,80.2,67.8,27.98,NE,52,6.0,13.0,66,0.00,15:20,,0.01,WeatherDisplay:WD co,2013-06-13 12:20:00,
2013-06-13 15:30:00,78.8,67.8,27.98,NNE,29,3.0,9.0,69,0.00,15:25,,0.01,WeatherDisplay:WD co,2013-06-13 12:30:00,
2013-06-13 15:35:00,78.1,67.9,27.98,NNE,27,1.0,4.0,71,0.00,15:35,,0.01,WeatherDisplay:WD co,2013-06-13 12:35:00,
2013-06-13 15:40:00,78.6,67.2,27.98,NNE,29,5.0,9.0,68,0.00,15:40,,0.01,WeatherDisplay:WD co,2013-06-13 12:40:00,
2013-06-13 15:45:00,79.9,68.4,27.98,ESE,107,0.0,9.0,68,0.00,15:45,,0.01,WeatherDisplay:WD co,2013-06-13 12:45:00,
2013-06-13 15:50:00,81.0,68.1,27.97,SE,130,3.0,7.0,65,0.00,15:50,,0.01,WeatherDisplay:WD co,2013-06-13 12:50:00,
2013-06-13 15:55:00,80.1,67.7,27.97,ENE,60,3.0,9.0,66,0.00,15:55,,0.01,WeatherDisplay:WD co,2013-06-13 12:55:00,
2013-06-13 16:00:00,80.1,67.7,27.97,ENE,60,3.0,9.0,66,0.00,15:55,,0.01,WeatherDisplay:WD co,2013-06-13 13:00:00,
2013-06-13 16:05:00,78.6,66.3,27.97,NE,56,1.0,11.0,66,0.00,16:05,,0.01,WeatherDisplay:WD co,2013-06-13 13:05:00,
2013-06-13 16:10:00,78.4,66.6,27.97,East,85,1.0,13.0,67,0.00,16:10,,0.01,WeatherDisplay:WD co,2013-06-13 13:10:00,
2013-06-13 16:15:00,78.4,66.6,27.97,East,85,1.0,13.0,67,0.00,16:10,,0.01,WeatherDisplay:WD co,2013-06-13 13:15:00,
2013-06-13 16:35:00,78.1,66.7,27.97,NE,50,1.0,5.0,68,0.00,16:35,,0.01,WeatherDisplay:WD co,2013-06-13 13:35:00,
2013-06-13 16:40:00,78.3,66.8,27.97,SSE,158,1.0,8.0,68,0.00,16:40,,0.01,WeatherDisplay:WD co,2013-06-13 13:40:00,
2013-06-13 16:45:00,78.4,67.4,27.97,East,94,2.0,7.0,69,0.00,16:45,,0.01,WeatherDisplay:WD co,2013-06-13 13:45:00,
2013-06-13 16:55:00,79.7,66.9,27.97,ENE,62,0.0,8.0,65,0.00,16:55,,0.01,WeatherDisplay:WD co,2013-06-13 13:55:00,
2013-06-13 17:00:00,80.2,67.4,27.97,NE,36,1.0,5.0,65,0.00,17:00,,0.01,WeatherDisplay:WD co,2013-06-13 14:00:00,
2013-06-13 17:10:00,80.1,67.2,27.97,NE,44,1.0,8.0,65,0.00,17:10,,0.01,WeatherDisplay:WD co,2013-06-13 14:10:00,
2013-06-13 17:15:00,80.2,67.0,27.97,NE,37,3.0,9.0,64,0.00,17:15,,0.01,WeatherDisplay:WD co,2013-06-13 14:15:00,
2013-06-13 17:25:00,79.9,67.1,27.96,NE,56,5.0,11.0,65,0.00,17:25,,0.01,WeatherDisplay:WD co,2013-06-13 14:25:00,
2013-06-13 17:45:00,79.2,66.4,27.96,ENE,64,1.0,7.0,65,0.00,17:45,,0.01,WeatherDisplay:WD co,2013-06-13 14:45:00,
2013-06-13 17:50:00,78.6,66.3,27.97,NE,56,1.0,12.0,66,0.00,17:50,,0.01,WeatherDisplay:WD co,2013-06-13 14:50:00,
2013-06-13 17:55:00,78.3,66.0,27.96,ENE,58,0.0,3.0,66,0.00,17:55,,0.01,WeatherDisplay:WD co,2013-06-13 14:55:00,
2013-06-13 18:00:00,78.3,66.0,27.96,North,359,0.0,2.0,66,0.00,18:00,,0.01,WeatherDisplay:WD co,2013-06-13 15:00:00,
2013-06-13 18:05:00,77.7,65.9,27.96,NNE,26,0.0,6.0,67,0.00,18:05,,0.01,WeatherDisplay:WD co,2013-06-13 15:05:00,
2013-06-13 18:10:00,77.7,66.3,27.96,ENE,57,1.0,6.0,68,0.00,18:10,,0.01,WeatherDisplay:WD co,2013-06-13 15:10:00,
2013-06-13 18:15:00,77.7,66.3,27.96,ENE,57,1.0,6.0,68,0.00,18:10,,0.01,WeatherDisplay:WD co,2013-06-13 15:15:00,
2013-06-13 18:25:00,79.2,67.7,27.96,East,83,1.0,7.0,68,0.00,18:25,,0.01,WeatherDisplay:WD co,2013-06-13 15:25:00,
2013-06-13 18:40:00,79.3,67.0,27.97,ENE,72,0.0,2.0,66,0.00,18:40,,0.01,WeatherDisplay:WD co,2013-06-13 15:40:00,
2013-06-13 18:45:00,79.2,66.8,27.96,West,280,0.0,2.0,66,0.00,18:45,,0.01,WeatherDisplay:WD co,2013-06-13 15:45:00,
2013-06-13 18:55:00,78.6,66.3,27.96,WSW,245,0.0,0.0,66,0.00,18:55,,0.01,WeatherDisplay:WD co,2013-06-13 15:55:00,
2013-06-13 19:05:00,78.6,66.3,27.96,WNW,300,0.0,0.0,66,0.00,19:00,,0.01,WeatherDisplay:WD co,2013-06-13 16:05:00,
2013-06-13 19:10:00,77.5,65.7,27.95,WSW,255,0.0,3.0,67,0.00,19:10,,0.01,WeatherDisplay:WD co,2013-06-13 16:10:00,
2013-06-13 19:20:00,77.4,65.5,27.96,WSW,239,0.0,2.0,67,0.00,19:15,,0.01,WeatherDisplay:WD co,2013-06-13 16:20:00,
2013-06-13 19:30:00,76.5,65.1,27.97,NNE,25,0.0,2.0,68,0.00,19:30,,0.01,WeatherDisplay:WD co,2013-06-13 16:30:00,
2013-06-13 19:35:00,76.3,64.9,27.97,NW,325,0.0,3.0,68,0.00,19:35,,0.01,WeatherDisplay:WD co,2013-06-13 16:35:00,
2013-06-13 19:40:00,76.3,64.9,27.97,SW,233,0.0,4.0,68,0.00,19:40,,0.01,WeatherDisplay:WD co,2013-06-13 16:40:00,
2013-06-13 19:45:00,76.3,64.9,27.97,NE,35,0.0,5.0,68,0.00,19:45,,0.01,WeatherDisplay:WD co,2013-06-13 16:45:00,
2013-06-13 19:50:00,76.1,65.2,27.97,NE,45,0.0,8.0,69,0.00,19:50,,0.01,WeatherDisplay:WD co,2013-06-13 16:50:00,
2013-06-13 19:55:00,76.1,65.2,27.97,ENE,57,0.0,4.0,69,0.00,19:55,,0.01,WeatherDisplay:WD co,2013-06-13 16:55:00,
2013-06-13 20:00:00,75.9,65.4,27.97,NE,49,0.0,4.0,70,0.00,20:00,,0.01,WeatherDisplay:WD co,2013-06-13 17:00:00,
2013-06-13 20:10:00,75.7,65.3,27.97,West,277,0.0,4.0,70,0.00,20:10,,0.01,WeatherDisplay:WD co,2013-06-13 17:10:00,
2013-06-13 20:25:00,75.2,65.1,27.97,East,94,0.0,4.0,71,0.00,20:25,,0.01,WeatherDisplay:WD co,2013-06-13 17:25:00,
2013-06-13 20:30:00,75.2,65.1,27.98,NE,48,1.0,4.0,71,0.00,20:30,,0.01,WeatherDisplay:WD co,2013-06-13 17:30:00,
2013-06-13 20:35:00,75.2,65.1,27.98,NE,48,1.0,4.0,71,0.00,20:30,,0.01,WeatherDisplay:WD co,2013-06-13 17:35:00,
2013-06-13 20:50:00,75.0,65.4,27.97,NE,34,1.0,4.0,72,0.00,20:50,,0.01,WeatherDisplay:WD co,2013-06-13 17:50:00,
2013-06-13 20:55:00,74.8,65.2,27.97,NNE,27,0.0,2.0,72,0.00,20:55,,0.01,WeatherDisplay:WD co,2013-06-13 17:55:00,
2013-06-13 21:00:00,74.8,65.2,27.97,ENE,69,0.0,4.0,72,0.00,21:00,,0.01,WeatherDisplay:WD co,2013-06-13 18:00:00,
2013-06-13 21:05:00,74.8,65.2,27.97,ENE,69,0.0,4.0,72,0.00,21:00,,0.01,WeatherDisplay:WD co,2013-06-13 18:05:00,
2013-06-13 21:10:00,74.8,65.2,27.98,SE,131,0.0,2.0,72,0.00,21:10,,0.01,WeatherDisplay:WD co,2013-06-13 18:10:00,
2013-06-13 21:20:00,74.8,65.2,27.98,NE,53,0.0,2.0,72,0.00,21:20,,0.01,WeatherDisplay:WD co,2013-06-13 18:20:00,
2013-06-13 21:25:00,74.7,65.0,27.99,NE,34,0.0,1.0,72,0.00,21:25,,0.01,WeatherDisplay:WD co,2013-06-13 18:25:00,
2013-06-13 21:40:00,74.8,65.2,27.99,NE,45,1.0,3.0,72,0.00,21:40,,0.01,WeatherDisplay:WD co,2013-06-13 18:40:00,
2013-06-13 21:45:00,74.8,65.2,27.99,NE,45,1.0,3.0,72,0.00,21:40,,0.01,WeatherDisplay:WD co,2013-06-13 18:45:00,
2013-06-13 21:55:00,74.8,65.2,28.00,NE,47,1.0,4.0,72,0.00,21:55,,0.01,WeatherDisplay:WD co,2013-06-13 18:55:00,
2013-06-13 22:00:00,74.7,65.0,28.00,ENE,66,0.0,5.0,72,0.00,22:00,,0.01,WeatherDisplay:WD co,2013-06-13 19:00:00,
2013-06-13 22:05:00,74.5,65.3,28.01,NE,35,0.0,6.0,73,0.00,22:05,,0.01,WeatherDisplay:WD co,2013-06-13 19:05:00,
2013-06-13 22:10:00,73.9,65.5,28.01,North,359,0.0,8.0,75,0.00,22:10,,0.01,WeatherDisplay:WD co,2013-06-13 19:10:00,
2013-06-13 22:15:00,73.4,65.7,28.02,ENE,71,0.0,5.0,77,0.00,22:15,,0.01,WeatherDisplay:WD co,2013-06-13 19:15:00,
2013-06-13 22:20:00,73.0,65.8,28.01,ESE,118,1.0,5.0,78,0.00,22:20,,0.01,WeatherDisplay:WD co,2013-06-13 19:20:00,
2013-06-13 22:25:00,72.5,66.0,28.02,SW,236,0.0,3.0,80,0.00,22:25,,0.01,WeatherDisplay:WD co,2013-06-13 19:25:00,
2013-06-13 22:30:00,72.1,66.0,28.02,South,185,0.0,0.0,81,0.00,22:30,,0.01,WeatherDisplay:WD co,2013-06-13 19:30:00,
2013-06-13 22:35:00,71.8,66.7,28.02,South,183,0.0,0.0,84,0.00,22:35,,0.01,WeatherDisplay:WD co,2013-06-13 19:35:00,
2013-06-13 22:40:00,71.4,67.0,28.02,NE,40,0.0,2.0,86,0.00,22:40,,0.01,WeatherDisplay:WD co,2013-06-13 19:40:00,
2013-06-13 22:45:00,71.2,67.2,28.02,ENE,75,1.0,4.0,87,0.00,22:45,,0.01,WeatherDisplay:WD co,2013-06-13 19:45:00,
2013-06-13 22:50:00,70.5,66.8,28.02,NE,39,1.0,7.0,88,0.00,22:50,,0.01,WeatherDisplay:WD co,2013-06-13 19:50:00,
2013-06-13 22:55:00,70.3,66.6,28.02,NNE,26,0.0,1.0,88,0.00,22:55,,0.01,WeatherDisplay:WD co,2013-06-13 19:55:00,
2013-06-13 23:00:00,70.2,66.4,28.02,NE,45,0.0,0.0,88,0.00,23:00,,0.01,WeatherDisplay:WD co,2013-06-13 20:00:00,
2013-06-13 23:05:00,70.0,66.3,28.02,SSW,192,0.0,0.0,88,0.00,23:05,,0.01,WeatherDisplay:WD co,2013-06-13 20:05:00,
2013-06-13 23:10:00,70.2,66.8,28.02,ESE,113,0.0,0.0,89,0.00,23:10,,0.01,WeatherDisplay:WD co,2013-06-13 20:10:00,
2013-06-13 23:25:00,70.2,67.1,28.02,North,356,0.0,2.0,90,0.00,23:25,,0.01,WeatherDisplay:WD co,2013-06-13 20:25:00,
2013-06-13 23:35:00,70.2,67.4,28.02,NE,56,0.0,0.0,91,0.00,23:35,,0.01,WeatherDisplay:WD co,2013-06-13 20:35:00,
2013-06-13 23:40:00,70.2,67.1,28.02,NNE,28,0.0,0.0,90,0.00,23:40,,0.01,WeatherDisplay:WD co,2013-06-13 20:40:00,
2013-06-13 23:45:00,70.2,67.4,28.03,NE,45,0.0,0.0,91,0.00,23:45,,0.01,WeatherDisplay:WD co,2013-06-13 20:45:00,
2013-06-13 23:50:00,70.0,66.9,28.02,SSE,158,0.0,0.0,90,0.00,23:50,,0.01,WeatherDisplay:WD co,2013-06-13 20:50:00,
2013-06-13 23:55:00,70.0,66.9,28.02,East,99,0.0,0.0,90,0.00,23:55,,0.01,WeatherDisplay:WD co,2013-06-13 20:55:00,